Location: Newark
(11.3000°S, 17.8000°E)
Time: 21:48:45
(UTC+00:00)

N. Korean satellite - Visible Passes

Search period start: 07 December 2019 00:00
Search period end: 17 December 2019 00:00
Orbit: 456 x 506 km, 97.2° (Epoch: 06 December)

Date Brightness Start Highest point End Pass type
(mag) Time Alt. Az. Time Alt. Az. Time Alt. Az.
07 Dec 9.9 03:27:38 10° ENE 03:29:29 14° ESE 03:31:19 10° SE visible
10 Dec 9.1 03:43:33 10° NE 03:46:27 26° ESE 03:49:22 10° SSE visible
11 Dec 10.4 03:20:43 10° E 03:21:08 10° ESE 03:21:34 10° ESE visible
14 Dec 9.6 03:35:33 10° NE 03:38:05 19° ESE 03:40:37 10° SSE visible
